Content
SEND FEEDBACK

Daily
Averages
Monthly
Summary
United States of America

BEACON, NEW YORK


Home > North America > United States > New York
Elevation: 272 feet     Latitude: 41 31N     Longitude: 073 55W

WEATHER
 
SELECT A DAY
Number of Records: 194,680;   Date Range: 1/1/95 - 9/3/14
 
SHARE

PRINT THIS DATA

[ ← Previous Day ]
WEATHER ALMANAC - MARCH 26, 2013
[ Next Day → ]
[ °C ]   °F
Weather ElementAverageHighLow
Temperature39.9 °F48.9 °F (1:53 pm)30 °F (11:53 pm)
Dewpoint26 °F28.9 °F (8:53 am)21.9 °F (7:53 pm)
Humidity59.8 %82 % (6:53 am)37 % (5:53 pm)
Barometer29.72 in29.84 in (11:53 pm)29.60 in (1:53 am)
Wind Speed4.4 mph18.4 mph (1:53 pm)
Wind Gust21.9 mph (12:53 pm)
Weather ElementAverage
Visibility10 mi
Wind DirectionESE (125.7 °)

Weather ElementTotal
Precipitation---
Heating Degree Days25.6 (Base 65)
Averaged from 23 records on March 26, 2013
WEATHER CONDITIONS BREAKOUT
WIND DIRECTION BREAKOUT
WEATHER BY HOUR - MARCH 26, 2013
[ °C ]   °F
Local TimeTemperatureDewpointHumidityBarometerVisibilityWind DirectionWind SpeedGust SpeedPrecipitationEventsConditions
1:53 AM37.9 °F26.1 °F62 %29.60 in10.0 miNNW (340°)3.5 mphOvercast
2:53 AM36.0 °F27.0 °F70 %29.61 in10.0 miCalmOvercast
3:53 AM34.0 °F27.0 °F75 %29.62 in10.0 miCalmOvercast
4:53 AM33.1 °F27.0 °F78 %29.63 in10.0 miCalmOvercast
5:53 AM33.1 °F27.0 °F78 %29.66 in10.0 miCalmOvercast
6:53 AM32.0 °F27.0 °F82 %29.67 in10.0 miCalmOvercast
7:53 AM33.1 °F28.0 °F82 %29.68 in10.0 miCalmOvercast
8:53 AM37.0 °F28.9 °F73 %29.71 in10.0 miCalmOvercast
9:53 AM41.0 °F28.0 °F60 %29.72 in10.0 miSW (230°)3.5 mphOvercast
10:53 AM45.0 °F27.0 °F49 %29.72 in10.0 miNNW (330°)10.4 mph19.6 mphMostly Cloudy
11:53 AM46.9 °F28.0 °F48 %29.73 in10.0 miNW (310°)8.1 mph17.3 mphMostly Cloudy
12:53 PM46.9 °F27.0 °F46 %29.72 in10.0 miNW (310°)10.4 mph21.9 mphMostly Cloudy
1:53 PM48.9 °F28.0 °F44 %29.73 in10.0 miNorth (10°)18.4 mph21.9 mphOvercast
2:53 PM46.9 °F26.1 °F44 %29.73 in10.0 miNNW (330°)9.2 mph17.3 mphOvercast
3:53 PM48.0 °F25.0 °F41 %29.73 in10.0 miNNW (330°)9.2 mph17.3 mphMostly Cloudy
4:53 PM48.9 °F26.1 °F41 %29.74 in10.0 miNNW (330°)11.5 mphOvercast
5:53 PM48.0 °F23.0 °F37 %29.75 in10.0 miNorth (10°)10.4 mphOvercast
6:53 PM46.0 °F23.0 °F40 %29.77 in10.0 miNorth (360°)5.8 mphMostly Cloudy
7:53 PM42.1 °F21.9 °F45 %29.80 in10.0 miCalmClear
8:53 PM37.0 °F24.1 °F59 %29.81 in10.0 miCalmPartly Cloudy
9:53 PM34.0 °F25.0 °F70 %29.83 in10.0 miCalmScattered Clouds
10:53 PM32.0 °F24.1 °F73 %29.83 in10.0 miCalmClear
11:53 PM30.0 °F24.1 °F79 %29.84 in10.0 miCalmClear
Hourly data recorded from KPOU, located miles away from Beacon, New York







STORIES FROM OUR PARTNERS